User: anonymous   Login
Location: Caltech
(34.1382°N, 118.1253°W)
Time: 02:14:20
(UTC-08:00)
Language:

PANSAT - Orbit

View from above orbital plane
View from above orbital plane
View from above satellite
View from above satellite

Ground track
Ground track

The orbit data is extracted from the following two-line orbital elements,

1 25520U 98064B   15023.83071387  .00002354  00000-0  82906-4 0  6652
2 25520 028.4577 176.2387 0004438 027.1035 120.1658 15.25184354900336
Epoch (UTC): 23 January 2015 19:56:13
Eccentricity: 0.0004438
inclination: 28.4577°
perigee height: 487 km
apogee height: 493 km
right ascension of ascending node: 176.2387°
argument of perigee: 27.1035°
revolutions per day: 15.25184354
mean anomaly at epoch: 120.1658°
orbit number at epoch: 90033

The dashed part of the orbit path shows where the satellite is in the earth's shadow,  

DLR